Weather in Khangish-Yurt

Russia / Chechen Republic     43°24′46″N   46°14′12″E
temp.,
°C
wind,
m/s
gust,
m/s
humid.,
%
clouds,
%
prec.,
mm/h
press.,
hPa
HPBL,
m
24 january, sun
sun2400:00+1w118322 0.0 102522
03:000wsw22767 0.0 102322
06:00−1wsw12630 0.0 102321
09:00+2se11520 0.0 102382
12:00+6e34550 0.0 1022575
15:00+8ene34510 0.0 1020665
18:00+4ene33680 0.0 102150
21:00+1e227910 0.0 102122
25 january, mon
mon2500:000se118375 0.0 102022
03:000w128476 0.0 102021
06:000sw1184100 0.0 102021
09:00+2sse0071100 0.0 102138
12:00+7e245476 0.0 1020454
15:00+9e344953 0.0 1018698
18:00+5ene34750 0.0 101968
21:00+2e22860 0.0 101822
26 january, tue
tue2600:00+2e01850 0.0 101722
03:00+1wnw11869 0.0 101822
06:00+1w1286100 0.0 101822
09:00+3e0075100 0.0 101938
12:00+7nne115671 0.0 1019368
15:00+9ne00484 0.0 1018563
18:00+6e23600 0.0 101923
21:00+4e389049 0.0 1018193
27 january, wed
wed2700:00+3e369331 0.0 1017147
03:00+2e229143 0.0 101623
06:00+2e2392100 0.0 101427
09:00+3ene1387100 0.0 1013133
12:00+8ese256596 0.0 1010544
15:00+10sse126168 0.0 1008625
18:00+6wsw227069 0.0 100928
21:00+5w228161 0.0 100824
28 january, thu
thu2800:00+4w238894 0.0 100729
03:00+4w338997 0.0 100548
06:00+3w3591100 0.0 100694
09:00+5wnw468278 0.0 1006253
12:00+9wnw45610 0.0 1005526
15:00+10wnw355717 0.0 1004631
18:00+7nw226933 0.0 100722
21:00+6wnw227847 0.0 100722